Date,TemperatureHighF,TemperatureAvgF,TemperatureLowF,DewpointHighF,DewpointAvgF,DewpointLowF,HumidityHigh,HumidityAvg,HumidityLow,PressureMaxIn,PressureMinIn,WindSpeedMaxMPH,WindSpeedAvgMPH,GustSpeedMaxMPH,PrecipitationSumIn
2012-6-18,89.1,84.3,79.0,69.4,64.1,58.8,72,52,38,29.97,29.89,21,10,21,0.02
2012-6-19,86.2,82.0,78.8,72.7,69.5,66.1,81,66,58,29.98,29.84,23,11,23,0.07
2012-6-20,85.1,78.4,75.2,74.8,73.0,70.6,93,84,63,29.97,29.88,23,5,23,1.09
2012-6-21,93.4,83.6,76.1,75.2,73.0,71.1,88,71,51,29.94,29.82,21,4,21,0.00
2012-6-22,91.0,79.8,74.5,76.8,73.8,71.6,93,82,57,29.91,29.78,15,4,15,0.43
2012-6-23,89.2,79.5,72.9,77.4,74.0,70.0,95,84,64,30.00,29.80,14,3,18,0.27
2012-6-24,83.3,79.1,73.4,78.6,75.3,70.3,94,88,81,29.97,29.84,18,4,32,1.44
2012-6-25,92.5,85.0,82.2,77.1,74.7,70.0,83,72,51,29.84,29.74,16,7,26,0.00
2012-6-26,92.1,84.8,76.3,77.1,72.7,67.9,92,68,47,29.77,29.69,29,9,55,0.24
2012-6-27,94.5,85.2,79.3,77.5,74.9,70.2,86,72,46,29.98,29.74,16,6,26,0.12
2012-6-28,92.3,83.4,74.1,75.2,71.5,68.7,85,68,52,30.05,29.97,8,2,13,0.00
2012-6-29,97.3,86.4,74.3,76.0,71.4,67.1,88,63,42,30.03,29.92,6,1,12,0.00
2012-6-30,97.7,86.5,77.4,75.9,72.9,69.1,87,66,43,30.01,29.91,8,2,14,0.00
2012-7-1,97.0,86.8,78.6,76.0,73.1,68.9,84,65,45,30.07,29.97,10,2,15,0.00
2012-7-2,98.1,86.5,77.4,79.3,73.4,65.2,90,67,36,30.10,29.97,9,2,18,0.00
2012-7-3,96.8,86.7,76.3,76.1,73.7,69.2,90,67,42,30.06,29.97,7,2,12,0.00
2012-7-4,96.3,85.6,78.3,78.4,74.6,71.7,89,71,50,30.07,29.99,7,1,12,0.00
2012-7-5,96.1,85.5,76.1,77.4,73.3,70.7,88,68,46,30.04,29.95,12,2,20,0.00
2012-7-6,95.7,86.4,76.6,76.0,73.2,69.2,85,66,46,30.04,29.97,7,2,15,0.00
2012-7-7,96.1,86.2,77.5,76.6,74.0,70.6,87,68,45,30.07,30.00,10,2,16,0.00
2012-7-8,96.8,85.7,77.5,77.4,74.5,71.2,91,70,46,30.06,29.99,9,2,17,0.00
2012-7-9,93.9,85.2,77.5,76.4,74.0,70.2,91,70,52,30.04,29.94,7,2,14,0.00
2012-7-10,95.5,85.2,77.0,78.2,74.8,71.2,91,72,47,30.02,29.92,10,2,18,0.08
2012-7-11,92.7,79.9,72.5,75.6,72.8,70.6,96,80,52,30.05,29.93,9,2,14,1.06
2012-7-12,93.7,82.5,74.3,76.3,72.6,67.3,88,73,45,30.03,29.94,18,2,30,0.01
2012-7-13,93.6,83.4,75.2,77.0,73.6,71.2,93,74,51,30.03,29.92,8,2,16,0.20
2012-7-14,91.2,84.1,80.2,77.4,72.9,69.9,80,69,56,30.03,29.92,10,3,20,0.05
2012-7-15,90.0,80.8,74.5,74.2,72.1,68.2,92,76,52,30.07,29.97,10,3,16,0.13
2012-7-16,90.1,78.5,72.1,76.4,73.1,69.3,94,84,60,30.06,29.93,13,2,19,0.44
2012-7-17,90.1,79.5,74.1,77.3,73.8,70.4,94,83,61,30.00,29.91,11,2,16,0.31
2012-7-18,93.7,83.8,73.8,77.7,74.2,67.8,93,74,44,30.08,29.94,10,3,17,0.00
2012-7-19,93.9,85.7,78.4,78.5,75.2,70.8,92,72,49,30.13,30.03,10,2,14,0.00
2012-7-20,92.7,86.3,80.6,77.1,75.4,73.6,82,71,57,30.09,29.98,10,2,15,0.00
2012-7-21,94.1,86.4,82.4,79.9,76.9,71.4,82,74,58,30.05,29.97,10,3,19,0.02
2012-7-22,89.1,81.2,73.6,78.3,75.0,70.5,94,82,68,30.08,29.98,21,3,34,1.49
2012-7-23,91.8,82.7,75.6,78.0,75.1,70.4,93,79,57,30.12,30.04,8,2,15,0.14
2012-7-24,94.3,85.9,82.0,78.7,76.6,67.5,88,75,59,30.09,29.97,11,3,17,0.00
2012-7-25,96.3,86.2,79.3,76.8,74.7,71.0,87,70,47,30.00,29.93,9,3,14,0.00
2012-7-26,95.7,86.2,77.9,76.9,74.0,71.0,87,68,48,30.01,29.93,10,2,15,0.00
2012-7-27,94.6,86.6,79.7,76.7,74.7,71.0,84,69,48,30.05,29.94,10,2,16,0.00
2012-7-28,93.4,84.9,75.9,77.6,73.7,68.9,90,70,47,30.06,29.98,20,2,28,0.02
2012-7-29,95.0,85.9,76.1,77.5,73.0,68.9,90,67,44,30.04,29.95,9,2,14,0.00
2012-7-30,97.0,85.0,78.8,75.5,71.8,63.8,82,66,44,30.01,29.92,8,2,16,0.00
2012-7-31,95.7,85.1,75.0,74.9,72.0,65.7,86,66,45,30.01,29.91,11,2,17,0.01
2012-8-1,95.4,85.7,79.2,78.0,74.1,70.8,83,69,50,29.97,29.88,12,2,18,0.00
2012-8-2,96.1,86.9,77.9,78.2,75.5,73.1,90,70,50,29.95,29.86,7,2,14,0.00
2012-8-3,91.6,80.5,77.7,77.6,75.2,73.3,90,84,61,29.97,29.87,9,2,15,0.18
2012-8-4,92.8,83.8,77.0,77.8,75.7,72.3,94,78,56,30.01,29.89,9,3,18,0.01
2012-8-5,94.5,86.6,81.1,77.7,75.6,73.0,81,70,55,30.03,29.96,10,3,15,0.00
2012-8-6,91.6,82.5,77.0,79.6,76.1,72.1,92,81,66,30.02,29.93,13,2,21,0.58
2012-8-7,94.3,85.7,77.0,77.8,75.7,70.3,92,73,52,29.99,29.90,11,3,16,0.01
2012-8-8,95.5,86.8,81.7,78.1,75.6,69.0,82,70,51,29.99,29.91,10,2,16,0.00
2012-8-9,95.0,87.2,82.0,77.8,75.5,71.6,81,69,53,29.98,29.86,12,3,19,0.00
2012-8-10,91.8,82.8,77.0,78.0,73.8,71.2,88,74,55,29.96,29.87,10,3,20,0.14
2012-8-11,93.0,81.5,75.7,76.6,73.4,70.2,90,77,56,30.00,29.87,14,3,21,0.07
2012-8-12,94.3,81.6,76.3,78.2,75.2,71.4,92,82,54,30.01,29.92,12,1,17,0.18
2012-8-13,94.5,84.8,77.0,79.7,76.5,74.7,94,77,55,30.01,29.93,8,1,12,0.01
2012-8-14,95.9,86.4,78.8,79.2,75.5,70.3,91,71,47,30.00,29.89,10,2,14,0.00
2012-8-15,92.7,84.9,79.3,79.9,76.6,73.5,91,76,58,29.99,29.91,11,2,15,0.20
2012-8-16,94.1,84.1,78.6,79.7,76.6,73.2,91,78,54,30.02,29.93,7,1,12,0.13
2012-8-17,96.1,82.8,73.9,77.8,74.0,68.1,92,77,45,30.01,29.86,16,2,24,0.17
2012-8-18,94.8,81.5,76.5,77.5,74.9,71.6,92,82,49,29.95,29.85,19,2,31,0.43
2012-8-19,95.0,85.4,78.1,77.4,75.7,72.5,92,74,54,29.96,29.85,11,3,17,0.01
2012-8-20,94.6,85.7,79.7,77.8,75.0,71.4,88,71,52,29.97,29.85,12,3,21,0.00
2012-8-21,94.8,85.4,79.3,76.4,73.6,70.6,87,69,49,30.03,29.92,14,4,20,0.00
2012-8-22,95.4,83.6,75.7,78.4,73.5,68.8,89,72,54,30.04,29.95,10,3,15,0.00
2012-8-23,95.0,85.0,76.6,79.0,73.8,70.1,90,70,50,30.03,29.95,8,2,15,0.00
2012-8-24,92.3,84.1,74.3,76.2,73.1,66.2,89,70,57,29.97,29.86,15,5,23,0.24
2012-8-25,87.3,80.8,73.9,78.8,74.0,67.2,92,80,71,29.92,29.81,16,6,25,0.34
2012-8-26,86.0,79.5,74.7,78.6,76.0,71.9,95,89,75,29.82,29.63,18,9,33,2.88
2012-8-27,87.3,80.9,75.7,80.3,77.3,73.2,95,89,77,29.90,29.67,24,9,39,2.47
2012-8-28,94.8,84.9,77.9,80.0,77.3,31.5,93,78,60,29.96,29.86,13,4,24,0.17
2012-8-29,93.9,86.1,80.4,77.7,76.1,74.1,86,73,57,29.96,29.85,11,4,18,0.00
2012-8-30,95.0,86.2,77.4,78.3,75.4,1.1,91,71,52,30.05,29.90,8,2,14,0.00
2012-8-31,96.1,86.6,79.5,77.9,75.2,70.9,87,70,45,30.09,30.00,6,2,11,0.00
2012-9-1,93.7,85.4,77.5,79.6,75.7,71.9,92,74,56,30.06,29.96,12,3,20,0.07
2012-9-2,92.5,84.5,77.9,75.9,72.8,70.2,87,69,53,30.00,29.91,11,4,18,0.00
2012-9-3,94.5,84.0,-34.6,75.8,72.2,-63.1,87,69,17,29.99,29.91,8,2,14,0.00
2012-9-4,93.6,82.9,75.9,77.9,72.5,27.0,89,72,53,29.98,29.88,12,2,21,0.05
2012-9-5,94.3,81.1,74.5,75.3,72.0,67.4,88,75,53,29.96,29.86,11,2,16,0.15
2012-9-6,94.1,80.4,73.8,78.4,73.0,-2.4,92,79,51,29.99,29.90,12,1,24,0.20
2012-9-7,95.0,81.7,72.7,77.6,72.2,43.2,92,74,41,29.95,29.85,9,2,14,0.06
2012-9-8,95.4,84.0,75.4,77.2,73.6,68.9,91,73,44,29.93,29.82,14,2,22,0.02
2012-9-9,97.0,86.9,78.6,76.1,72.8,18.1,84,65,10,29.92,29.82,11,4,15,0.01
2012-9-10,94.6,85.8,79.3,78.1,75.1,72.8,87,71,51,29.95,29.86,14,3,21,0.05
2012-9-11,95.0,84.5,77.0,78.5,75.1,72.7,89,74,56,30.00,29.91,11,3,18,0.05
2012-9-12,93.6,84.9,76.8,76.4,73.5,70.5,93,69,52,30.01,29.92,16,6,25,0.13
2012-9-13,86.7,81.4,74.3,76.3,73.8,19.6,93,78,67,30.02,29.91,13,4,21,0.21
2012-9-14,101.3,83.0,75.6,76.6,73.6,34.7,90,74,10,29.97,29.89,8,2,14,0.24
2012-9-15,93.2,82.8,75.2,78.9,74.4,71.1,92,77,55,29.99,29.91,9,3,15,0.13
2012-9-16,87.1,81.6,77.0,75.9,73.3,69.9,87,76,66,29.99,29.90,8,1,13,0.11
2012-9-17,92.8,83.1,74.7,78.5,73.6,70.8,90,74,53,29.97,29.85,11,2,17,0.05
2012-9-18,94.6,84.1,77.2,80.3,74.6,72.1,90,74,54,29.94,29.83,11,3,17,0.19
2012-9-19,95.2,84.1,75.7,78.2,74.9,70.9,91,75,48,29.99,29.86,5,2,10,0.00
2012-9-20,93.6,84.5,76.5,78.3,74.7,72.2,89,73,55,29.98,29.86,10,3,16,0.00
2012-9-21,92.5,81.6,73.6,76.3,73.7,69.8,92,78,54,29.92,29.84,9,2,15,0.38
2012-9-22,90.3,78.7,73.0,77.3,74.4,70.3,94,87,62,29.97,29.85,11,1,17,1.19
2012-9-23,88.3,80.9,75.6,77.5,74.7,72.9,95,82,61,29.99,29.92,8,2,11,0.02
2012-9-24,89.8,80.4,75.4,77.7,73.7,70.0,93,81,60,30.00,29.92,14,2,23,0.25
2012-9-25,90.7,81.9,75.7,75.9,73.0,69.6,87,75,56,30.01,29.92,8,2,13,0.00
2012-9-26,91.9,83.7,78.4,77.1,74.3,71.3,87,74,59,30.02,29.95,8,2,11,0.00
2012-9-27,95.0,84.3,76.6,77.3,74.6,69.7,92,74,51,30.02,29.91,9,2,17,0.00
2012-9-28,93.6,82.3,76.1,79.5,74.5,71.5,91,78,52,29.97,29.85,8,2,14,0.01
2012-9-29,95.2,83.9,75.9,77.6,74.4,71.7,90,74,50,29.91,29.78,8,2,12,0.00
2012-9-30,93.9,84.4,75.4,79.0,74.4,72.0,91,73,52,29.84,29.72,10,2,17,0.00
2012-10-1,88.7,80.2,75.7,78.0,74.5,73.0,94,83,64,29.83,29.71,14,2,19,1.15
2012-10-2,89.6,79.8,74.7,78.1,74.7,71.8,94,85,65,30.00,29.80,13,3,21,0.60
2012-10-3,93.9,84.4,39.0,80.1,76.1,-12.9,93,78,10,30.11,29.98,148,3,148,0.04
2012-10-4,95.4,86.9,80.1,79.6,77.0,74.5,87,73,54,30.10,29.98,9,3,15,0.00
2012-10-5,95.0,86.4,80.6,77.6,75.7,71.9,84,71,50,30.03,29.86,8,2,14,0.00
2012-10-6,95.2,84.3,77.5,78.3,74.8,-49.6,88,74,51,29.92,29.78,9,1,14,0.05
2012-10-7,86.4,80.1,74.1,78.5,75.0,71.1,92,85,70,29.91,29.81,7,2,11,0.27
2012-10-8,92.8,82.9,76.5,78.0,75.3,72.5,91,79,58,29.95,29.84,7,1,11,0.04
2012-10-9,94.8,84.8,77.2,77.6,75.4,71.9,92,75,53,29.96,29.88,9,2,13,0.00
2012-10-10,91.4,82.9,76.6,78.3,74.1,69.9,91,75,59,30.00,29.91,14,3,19,0.01
2012-10-11,88.2,81.2,73.8,72.4,68.8,64.1,87,67,48,30.05,29.96,14,5,23,0.00
2012-10-12,87.8,81.6,75.2,68.1,65.4,62.8,74,58,45,30.05,29.97,17,7,24,0.00
2012-10-13,88.0,80.3,73.6,72.2,67.9,64.7,87,67,49,30.04,29.95,17,7,27,0.02
2012-10-14,87.3,82.6,78.6,76.3,72.9,65.3,82,73,61,29.99,29.86,18,7,27,0.00
2012-10-15,91.9,84.2,79.0,75.6,73.1,70.4,82,70,54,29.88,29.72,12,4,17,0.00
2012-10-16,93.0,82.4,74.5,74.7,67.1,16.7,88,65,10,29.78,29.69,49,6,49,0.00
2012-10-17,90.5,79.9,71.6,75.7,71.8,68.2,92,77,58,29.83,29.73,13,2,18,0.40
2012-10-18,93.2,82.0,74.5,77.1,73.9,70.4,91,77,53,29.81,29.73,8,2,15,0.00
2012-10-19,92.7,82.2,76.3,77.8,74.4,70.7,92,78,54,29.83,29.73,6,1,12,0.00
2012-10-20,91.6,81.2,75.6,75.0,72.4,69.9,91,75,54,29.87,29.77,10,3,17,0.00
2012-10-21,88.7,79.7,72.7,71.1,64.7,60.3,87,62,43,29.94,29.82,11,4,17,0.00
2012-10-22,88.2,80.4,74.7,68.3,64.9,61.5,68,60,48,29.96,29.88,15,5,25,0.00
2012-10-23,88.5,81.0,74.1,71.4,67.3,61.1,87,63,53,29.92,29.84,14,6,24,0.00
2012-10-24,87.6,80.9,73.8,74.1,71.2,67.0,93,73,54,29.90,29.77,16,7,26,0.35
2012-10-25,83.3,78.7,71.2,74.0,71.1,65.8,93,78,64,29.77,29.57,23,9,34,0.35
2012-10-26,81.5,75.3,70.7,72.9,68.6,63.9,92,80,63,29.57,29.39,23,11,36,0.46
2012-10-27,84.9,75.4,69.1,68.3,63.2,59.6,83,67,45,29.62,29.40,20,10,33,0.00
2012-10-28,83.7,74.1,67.3,66.7,62.3,56.6,88,68,43,29.72,29.59,17,6,24,0.00
2012-10-29,75.6,66.0,59.0,57.1,48.7,38.5,76,56,29,29.81,29.68,14,6,23,0.00
2012-10-30,75.0,64.0,55.4,50.6,46.8,40.6,70,55,34,29.94,29.77,15,5,26,0.00
2012-10-31,78.1,65.2,54.5,58.9,51.7,45.4,90,64,40,30.02,29.91,9,2,14,0.00
2012-11-1,84.2,70.3,57.9,62.3,58.7,53.5,90,69,41,30.01,29.89,9,2,16,0.00
2012-11-2,84.4,71.9,60.8,65.3,57.3,44.5,90,65,27,30.03,29.93,9,2,12,0.00
2012-11-3,87.8,70.4,57.6,61.2,55.3,38.4,87,63,20,30.09,29.98,10,2,17,0.00
2012-11-4,86.2,72.8,63.0,66.2,62.4,58.6,90,72,45,30.06,29.94,6,1,12,0.00
2012-11-5,81.3,72.9,66.9,64.9,60.4,55.1,88,67,43,29.96,29.85,8,2,13,0.00
2012-11-6,85.5,73.7,63.5,66.9,60.3,47.8,90,67,28,29.88,29.75,10,3,17,0.00
2012-11-7,73.8,67.5,59.9,64.6,56.3,49.7,89,68,47,29.92,29.76,14,5,21,0.00
2012-11-8,72.3,62.6,56.3,52.0,44.6,35.6,76,54,30,30.06,29.91,15,6,24,0.00
2012-11-9,77.7,68.0,57.4,57.2,52.1,48.5,80,59,37,30.15,30.03,12,6,20,0.00
2012-11-10,79.3,73.2,70.0,58.4,53.9,50.0,60,51,43,30.19,30.10,13,5,23,0.00
2012-11-11,83.3,76.8,72.1,67.1,60.2,53.0,83,57,39,30.17,30.11,14,6,23,0.02
2012-11-12,85.5,76.9,70.0,70.1,66.9,62.2,90,72,54,30.13,30.05,11,5,20,0.27
2012-11-13,84.0,77.0,70.3,67.2,65.4,63.3,79,68,53,30.08,29.98,11,4,17,0.00
2012-11-14,84.9,75.5,67.5,70.3,65.8,62.6,89,72,55,30.06,29.98,10,3,20,0.00
2012-11-15,86.4,74.2,64.4,69.2,64.1,59.8,91,73,43,30.03,29.96,8,2,16,0.02
2012-11-16,81.0,70.9,64.8,68.4,65.1,62.5,93,82,61,30.05,29.95,9,4,13,0.08
2012-11-17,82.6,73.4,66.0,68.4,65.3,62.4,93,77,56,30.03,29.94,14,4,19,0.18
2012-11-18,83.5,72.9,67.8,70.4,65.9,63.8,92,79,58,30.05,29.95,12,5,19,0.09
2012-11-19,75.6,66.5,61.2,63.8,59.2,56.9,89,78,59,30.06,29.94,12,6,17,0.00
2012-11-20,77.7,66.3,60.1,65.2,60.9,57.0,93,83,65,29.98,29.84,12,5,17,0.00
2012-11-21,78.6,67.4,59.7,62.9,57.6,52.3,91,72,46,29.97,29.84,12,6,19,0.00
2012-11-22,77.2,65.2,57.7,56.1,51.3,48.1,78,62,41,30.04,29.93,14,8,22,0.00
2012-11-23,81.0,66.0,55.2,58.3,54.1,49.8,84,67,42,30.09,29.97,11,4,15,0.00
2012-11-24,77.9,64.6,54.7,56.2,52.1,46.9,83,66,38,30.07,29.93,14,3,20,0.00
2012-11-25,80.1,65.0,53.8,59.0,54.7,50.9,91,72,41,30.07,29.98,6,2,9,0.00
2012-11-26,84.4,71.3,57.9,64.8,59.7,52.8,88,68,46,30.14,30.04,6,2,12,0.00
2012-11-27,84.4,74.2,64.9,66.4,63.6,59.3,85,70,51,30.13,30.02,8,2,14,0.00
2012-11-28,83.3,72.1,66.2,66.0,63.9,60.1,90,77,47,30.12,30.03,11,4,17,0.00
2012-11-29,81.0,71.7,62.4,65.7,62.7,60.0,92,74,57,30.15,30.08,14,5,24,0.01
2012-11-30,79.0,74.2,71.8,62.8,60.8,58.0,69,63,53,30.17,30.06,14,6,24,0.00
2012-12-1,82.6,75.5,72.3,64.2,62.2,60.1,71,64,50,30.13,30.05,14,6,21,0.00
2012-12-2,82.2,76.0,72.9,66.2,64.0,61.1,73,66,57,30.17,30.08,13,6,21,0.00
2012-12-3,81.1,74.7,71.1,64.3,59.7,49.6,75,60,47,30.18,30.09,12,5,20,0.00
2012-12-4,81.3,74.9,71.1,63.7,59.5,52.4,70,59,44,30.17,30.08,11,5,21,0.00
2012-12-5,84.6,75.3,67.6,66.2,63.0,59.8,85,66,44,30.08,29.95,7,2,13,0.02
2012-12-6,84.9,76.0,69.4,68.2,65.6,62.3,90,71,51,29.95,29.83,11,2,17,0.11
2012-12-7,85.3,76.2,68.9,69.5,67.4,65.3,91,75,55,29.92,29.83,8,2,17,0.02
2012-12-8,84.6,76.8,68.7,72.6,69.6,64.9,91,79,65,29.97,29.89,8,2,15,0.00
2012-12-9,88.3,78.3,70.3,75.0,72.3,67.6,92,82,63,30.02,29.91,6,2,11,0.00
2012-12-10,86.0,78.5,71.2,75.9,73.2,68.7,93,84,68,29.96,29.84,11,4,21,0.00
2012-12-11,88.5,79.7,71.6,76.7,73.6,68.9,92,82,62,29.99,29.85,11,4,18,0.02
2012-12-12,85.5,78.8,74.3,73.7,71.8,69.5,89,79,64,30.03,29.94,14,4,22,0.00
2012-12-13,81.1,73.3,66.0,74.5,68.3,62.9,92,85,70,30.03,29.95,11,4,17,0.01
2012-12-14,80.8,70.2,63.9,68.5,63.9,58.6,92,82,49,30.07,29.98,14,4,22,0.12
2012-12-15,81.1,75.0,68.0,66.8,64.5,62.6,90,70,57,30.04,29.95,11,4,20,0.00
2012-12-16,84.2,76.0,68.9,69.2,66.8,63.9,87,74,57,29.98,29.88,11,2,17,0.00
2012-12-17,85.8,74.6,63.9,68.8,65.6,60.9,91,75,49,29.91,29.81,8,2,13,0.00
2012-12-18,86.9,76.2,69.3,72.2,67.1,65.0,92,75,50,29.95,29.85,10,2,14,0.00
2012-12-19,86.4,73.7,61.7,66.8,62.1,55.5,89,69,44,30.03,29.93,6,2,11,0.00
2012-12-20,84.9,74.7,64.8,67.0,64.0,59.8,88,71,47,30.02,29.90,11,2,18,0.00
2012-12-21,72.0,64.8,52.7,68.4,50.6,36.6,89,63,34,30.12,29.89,19,7,28,0.00
2012-12-22,64.6,54.7,46.0,41.2,30.2,18.2,66,41,20,30.20,30.11,14,6,25,0.00
2012-12-23,77.5,61.9,50.7,55.1,44.7,32.1,81,54,41,30.19,30.07,8,2,13,0.00
2012-12-24,80.1,67.8,58.5,59.1,56.0,52.0,83,67,46,30.09,29.93,11,2,18,0.00
2012-12-25,83.1,70.3,58.3,65.6,60.2,55.1,90,72,48,29.99,29.86,8,2,15,0.00
2012-12-26,84.9,75.9,63.5,70.7,67.1,58.9,90,75,57,29.91,29.76,17,5,27,0.09
2012-12-27,74.8,61.6,52.9,58.9,49.3,40.9,89,67,32,30.02,29.91,10,3,14,0.00
2012-12-28,80.8,68.9,52.5,70.5,62.5,46.9,88,80,64,30.02,29.90,8,2,13,0.00
2012-12-29,83.7,76.3,62.4,73.3,69.6,50.3,90,80,64,30.03,29.86,14,5,23,0.00
2012-12-30,69.1,61.5,50.7,55.5,51.1,44.3,82,69,59,30.22,30.03,14,7,22,0.00
2012-12-31,79.2,71.2,66.2,60.8,57.3,53.3,67,62,49,30.25,30.12,11,4,21,0.00
2013-1-1,80.8,73.7,64.8,64.1,59.9,57.0,81,62,51,30.14,29.98,14,3,21,0.00